Namest Nad Oslav, Czech Republic

11:27 AM CET on December 09, 2019 (GMT +0100)
Namest

Weather History for LKNA - August, 2019

Change the Weather History Date:

Tuesday, August 6, 2019

  Actual Average (WUND) Record (WUND)
Temperature  
Mean Temperature 70 °F -  
Max Temperature 81 °F - - (-1)
Min Temperature 60 °F - - (-1)
Cooling Degree Days 6    
Growing Degree Days 20 (Base 50)    
Moisture  
Dew Point 57 °F    
Average Humidity 58    
Maximum Humidity 82    
Minimum Humidity 34    
Precipitation  
Precipitation 0.00 in - - ()
Sea Level Pressure  
Sea Level Pressure 29.90 in    
Wind  
Wind Speed 5 mph ()    
Max Wind Speed 12 mph    
Max Gust Speed -    
Visibility 14.7 miles    
Events      
Averages and records for this station are not official NWS values.
T = Trace of Precipitation, MM = Missing Value Source: Averaged Metar Reports

Daily Weather History Graph

Daily Weather History Graph

Search for Another Location

Airport or City:

Astronomy

Aug. 06, 2019 Rise Set
Actual Time 5:33 AM CEST 8:27 PM CEST
Civil Twilight 4:57 AM CEST 9:04 PM CEST
Nautical Twilight 4:09 AM CEST 9:51 PM CEST
Astronomical Twilight 3:11 AM CEST 10:49 PM CEST
Moon 12:10 PM CEST (8/6) 11:28 PM CEST (8/6)
Length of Visible Light 16h 07m
Length of Day
14h 53m
Waxing Crescent, 36% of the Moon is Illuminated
Aug 6
Waxing Crescent
Aug 7
First Quarter
Aug 15
Full
Aug 23
Last Quarter
Aug 30
New

Hourly Weather History & Observations

Time (CEST) Temp. Heat Index Dew Point Humidity Pressure Visibility Wind Dir Wind Speed Gust Speed Precip Events Conditions
12:00 AM 64.4 °F - 55.4 °F 73% 29.92 in - West 4.6 mph - N/A   Clear
1:00 AM 65 °F - 55 °F 61% 29.90 in 19 mi West 6.7 mph - -  
1:00 AM 62.6 °F - 55.4 °F 77% 29.92 in - WNW 6.9 mph - N/A   Clear
2:00 AM 63 °F - 54 °F 64% 29.91 in 19 mi West 2.2 mph - -   Clear
2:00 AM 62.6 °F - 55.4 °F 77% 29.92 in - Variable 1.2 mph - N/A   Clear
3:00 AM 62.6 °F - 55.4 °F 77% 29.92 in - North 2.3 mph - N/A   Clear
4:00 AM 62 °F - 54 °F 67% 29.91 in 19 mi West 2.2 mph - -   Clear
4:00 AM 62.6 °F - 55.4 °F 77% 29.95 in - WNW 2.3 mph - N/A   Clear
5:00 AM 62 °F - 54 °F 68% 29.91 in 19 mi WNW 2.2 mph - -   Clear
5:00 AM 62.6 °F - 55.4 °F 77% 29.92 in - NW 2.3 mph - N/A   Clear
6:00 AM 63 °F - 54 °F 63% 29.92 in 19 mi North 2.2 mph - -   Scattered Clouds
7:00 AM 64 °F - 55 °F 65% 29.91 in 25 mi North 4.5 mph - -   Mostly Cloudy
7:00 AM 62.6 °F - 57.2 °F 82% 29.95 in - North 3.5 mph - N/A   Clear
8:00 AM 65 °F - 56 °F 66% 29.93 in 19 mi WSW 4.5 mph - -   Mostly Cloudy
9:00 AM 69 °F - 57 °F 57% 29.92 in 19 mi SW 6.7 mph - -   Scattered Clouds
9:00 AM 69.8 °F - 57.2 °F 64% 29.95 in - SW 6.9 mph - N/A   Clear
10:00 AM 71 °F - 58 °F 55% 29.91 in 19 mi West 8.9 mph - -   Mostly Cloudy
11:00 AM 74 °F - 59 °F 49% 29.91 in 19 mi WSW 8.9 mph - -   Mostly Cloudy
11:00 AM 73.4 °F - 59.0 °F 61% 29.98 in 6.2 mi WSW 10.4 mph - N/A   Mostly Cloudy
11:25 AM 73.4 °F - 59.0 °F 61% 29.98 in 6.2 mi WSW 10.4 mph - N/A   Mostly Cloudy
12:00 PM 76 °F - 59 °F 46% 29.89 in 37 mi SW 8.9 mph - -   Partly Cloudy
12:00 PM 77.0 °F - 60.8 °F 57% 29.95 in 6.2 mi SW 8.1 mph - N/A   Mostly Cloudy
1:00 PM 78 °F - 59 °F 43% 29.88 in 19 mi WSW 11.2 mph - -   Partly Cloudy
1:00 PM 77.0 °F - 59.0 °F 54% 29.95 in 6.2 mi West 11.5 mph - N/A   Mostly Cloudy
2:00 PM 78.8 °F - 59.0 °F 51% 29.92 in 6.2 mi West 8.1 mph - N/A   Mostly Cloudy
3:00 PM 80 °F - 58 °F 37% 29.87 in 19 mi WSW 11.2 mph - -   Partly Cloudy
3:00 PM 80.6 °F 81.1 °F 59.0 °F 48% 29.92 in - SW 11.5 mph - N/A   Clear
4:00 PM 80 °F - 59 °F 39% 29.87 in 19 mi SW 11.2 mph - -   Scattered Clouds
4:00 PM 80.6 °F 81.1 °F 59.0 °F 48% 29.89 in - SW 10.4 mph - N/A   Clear
5:00 PM 81 °F - 57 °F 34% 29.81 in 19 mi SW 11.2 mph - -   Scattered Clouds
5:00 PM 80.6 °F 80.8 °F 57.2 °F 45% 29.89 in - SW 11.5 mph - N/A   Clear
6:00 PM 79 °F - 58 °F 37% 29.80 in 12 mi SW 11.2 mph - -   Scattered Clouds
6:00 PM 78.8 °F - 59.0 °F 51% 29.89 in - SW 10.4 mph - N/A   Clear
7:00 PM 78 °F - 58 °F 39% 29.82 in 12 mi WSW 6.7 mph - -   Scattered Clouds
7:00 PM 78.8 °F - 57.2 °F 47% 29.89 in - WSW 10.4 mph - N/A   Clear
8:00 PM 75 °F - 59 °F 48% 29.82 in 12 mi SW 6.7 mph - -   Scattered Clouds
8:00 PM 75.2 °F - 59.0 °F 57% 29.89 in - SSW 5.8 mph - N/A   Clear
9:00 PM 73 °F - 59 °F 53% 29.84 in 12 mi West 4.5 mph - -   Scattered Clouds
9:00 PM 73.4 °F - 59.0 °F 61% 29.89 in - West 4.6 mph - N/A   Clear
10:00 PM 69.8 °F - 59.0 °F 68% 29.89 in - North 5.8 mph - N/A   Clear
11:00 PM 70 °F - 58 °F 58% 29.85 in 12 mi ENE 2.2 mph - -   Clear
11:00 PM 69.8 °F - 59.0 °F 68% 29.89 in - Variable 2.3 mph - N/A   Clear